Weather History for Clovis, NM

Change the Weather History Date:

Tuesday, October 9, 2012

  Actual Average Record
Temperature  
Mean Temperature 66 °F -  
Max Temperature 84 °F 74 °F 93 °F (1979)
Min Temperature 48 °F 45 °F 26 °F (1970)
Cooling Degree Days 1    
Growing Degree Days 16 (Base 50)    
Moisture  
Dew Point 34 °F    
Average Humidity 38    
Maximum Humidity 71    
Minimum Humidity 13    
Precipitation  
Precipitation 0.00 in - - ()
Sea Level Pressure  
Sea Level Pressure 30.02 in    
Wind  
Wind Speed 12 mph (WNW)    
Max Wind Speed 21 mph    
Max Gust Speed 31 mph    
Visibility 10 miles    
Events      
Averages and records for this station are not official NWS values.
T = Trace of Precipitation, MM = Missing Value Source: NWS Daily Summary

Daily Weather History Graph

Daily Weather History Graph

Search for Another Location

Airport:

Trip Planner

Search our weather history database for the weather conditions in past years. The results will help you decide how hot, cold, wet, or windy it might be!

Date:

Astronomy

Oct. 09, 2012 Rise Set
Actual Time 6:53 AM MDT 6:24 PM MDT
Civil Twilight 6:28 AM MDT 6:50 PM MDT
Nautical Twilight 5:59 AM MDT 7:19 PM MDT
Astronomical Twilight 5:29 AM MDT 7:48 PM MDT
Moon 12:47 AM MDT (10/9) 2:40 PM MDT (10/9)
Length of Visible Light 12h 21m
Length of Day
11h 31m
Last Quarter, 36% of the Moon is Illuminated
Oct 9
Last Quarter
Oct 15
New
Oct 21
First Quarter
Oct 29
Full
Nov 6
Last Quarter

Hourly Weather History & Observations

Time (MDT) Temp. Dew Point Humidity Pressure Visibility Wind Dir Wind Speed Gust Speed Precip Events Conditions
12:15 AM 50.0 °F 39.2 °F 66% 30.00 in 10.0 mi SW 10.4 mph - N/A   Clear
12:35 AM 50.0 °F 39.2 °F 66% 29.99 in 10.0 mi WSW 8.1 mph - N/A   Clear
12:55 AM 48.2 °F 39.2 °F 71% 29.99 in 10.0 mi WSW 8.1 mph - N/A   Clear
1:15 AM 48.2 °F 39.2 °F 71% 29.98 in 10.0 mi WSW 6.9 mph - N/A   Clear
1:55 AM 51.8 °F 41.0 °F 67% 29.98 in 10.0 mi West 11.5 mph - N/A   Clear
2:15 AM 51.8 °F 39.2 °F 62% 29.98 in 10.0 mi West 11.5 mph - N/A   Clear
2:35 AM 51.8 °F 41.0 °F 67% 29.98 in 10.0 mi West 11.5 mph - N/A   Clear
2:55 AM 51.8 °F 39.2 °F 62% 29.97 in 10.0 mi West 11.5 mph - N/A   Clear
3:15 AM 51.8 °F 39.2 °F 62% 29.97 in 10.0 mi West 10.4 mph - N/A   Clear
3:35 AM 53.6 °F 41.0 °F 62% 29.97 in 10.0 mi West 11.5 mph - N/A   Clear
3:55 AM 53.6 °F 42.8 °F 67% 29.96 in 10.0 mi WSW 15.0 mph - N/A   Clear
4:15 AM 53.6 °F 42.8 °F 67% 29.97 in 10.0 mi West 11.5 mph - N/A   Clear
4:35 AM 51.8 °F 41.0 °F 67% 29.97 in 10.0 mi West 10.4 mph - N/A   Clear
4:55 AM 51.8 °F 41.0 °F 67% 29.98 in 10.0 mi West 12.7 mph - N/A   Clear
5:15 AM 50.0 °F 39.2 °F 66% 29.98 in 10.0 mi West 12.7 mph - N/A   Clear
5:55 AM 50.0 °F 41.0 °F 71% 29.98 in 10.0 mi West 12.7 mph - N/A   Clear
6:15 AM 48.2 °F 39.2 °F 71% 29.98 in 10.0 mi West 10.4 mph - N/A   Clear
6:35 AM 48.2 °F 39.2 °F 71% 29.98 in 10.0 mi WNW 10.4 mph - N/A   Clear
6:55 AM 48.2 °F 39.2 °F 71% 30.00 in 10.0 mi West 9.2 mph - N/A   Clear
7:15 AM 48.2 °F 39.2 °F 71% 30.00 in 10.0 mi West 9.2 mph - N/A   Clear
7:35 AM 51.8 °F 39.2 °F 62% 30.01 in 10.0 mi West 9.2 mph - N/A   Clear
7:55 AM 53.6 °F 39.2 °F 58% 30.01 in 10.0 mi West 12.7 mph - N/A   Clear
8:15 AM 57.2 °F 39.2 °F 51% 30.01 in 10.0 mi West 13.8 mph 20.7 mph N/A   Clear
8:35 AM 60.8 °F 37.4 °F 42% 30.03 in 10.0 mi West 12.7 mph - N/A   Clear
8:55 AM 62.6 °F 39.2 °F 42% 30.04 in 10.0 mi West 12.7 mph - N/A   Clear
9:15 AM 62.6 °F 39.2 °F 42% 30.04 in 10.0 mi WNW 15.0 mph - N/A   Clear
9:35 AM 66.2 °F 37.4 °F 35% 30.05 in 10.0 mi West 15.0 mph - N/A   Clear
9:55 AM 68.0 °F 37.4 °F 33% 30.05 in 10.0 mi West 17.3 mph - N/A   Clear
10:15 AM 69.8 °F 37.4 °F 31% 30.05 in 10.0 mi West 16.1 mph - N/A   Clear
10:35 AM 73.4 °F 37.4 °F 27% 30.05 in 10.0 mi West 15.0 mph - N/A   Clear
10:55 AM 75.2 °F 35.6 °F 24% 30.04 in 10.0 mi West 15.0 mph 19.6 mph N/A   Clear
11:15 AM 77.0 °F 35.6 °F 22% 30.04 in 10.0 mi West 16.1 mph - N/A   Clear
11:35 AM 80.6 °F 33.8 °F 18% 30.03 in 10.0 mi West 16.1 mph 20.7 mph N/A   Clear
11:55 AM 80.6 °F 33.8 °F 18% 30.02 in 10.0 mi West 13.8 mph 20.7 mph N/A   Clear
12:15 PM 82.4 °F 30.2 °F 15% 30.02 in 10.0 mi WNW 11.5 mph 23.0 mph N/A   Clear
12:35 PM 82.4 °F 30.2 °F 15% 30.01 in 10.0 mi West 10.4 mph 17.3 mph N/A   Clear
12:55 PM 82.4 °F 28.4 °F 14% 30.01 in 10.0 mi WNW 13.8 mph 19.6 mph N/A   Clear
1:15 PM 82.4 °F 28.4 °F 14% 29.99 in 10.0 mi West 10.4 mph 20.7 mph N/A   Clear
1:35 PM 82.4 °F 28.4 °F 14% 29.99 in 10.0 mi WNW 10.4 mph 18.4 mph N/A   Clear
1:55 PM 84.2 °F 28.4 °F 13% 29.98 in 10.0 mi WNW 9.2 mph 19.6 mph N/A   Clear
2:15 PM 84.2 °F 28.4 °F 13% 29.98 in 10.0 mi West 12.7 mph 25.3 mph N/A   Clear
2:35 PM 84.2 °F 28.4 °F 13% 29.98 in 10.0 mi WNW 16.1 mph 23.0 mph N/A   Clear
2:55 PM 84.2 °F 28.4 °F 13% 29.98 in 10.0 mi NNW 11.5 mph - N/A   Clear
3:15 PM 84.2 °F 30.2 °F 14% 29.97 in 10.0 mi West 15.0 mph - N/A   Clear
3:35 PM 84.2 °F 30.2 °F 14% 29.97 in 10.0 mi West 17.3 mph 27.6 mph N/A   Clear
3:55 PM 84.2 °F 28.4 °F 13% 29.97 in 10.0 mi West 18.4 mph 21.9 mph N/A   Clear
4:15 PM 84.2 °F 30.2 °F 14% 29.97 in 10.0 mi West 15.0 mph 20.7 mph N/A   Clear
4:35 PM 84.2 °F 28.4 °F 13% 29.97 in 10.0 mi West 12.7 mph 18.4 mph N/A   Clear
4:55 PM 84.2 °F 28.4 °F 13% 29.97 in 10.0 mi West 13.8 mph - N/A   Clear
5:15 PM 82.4 °F 28.4 °F 14% 29.97 in 10.0 mi West 13.8 mph - N/A   Clear
5:35 PM 82.4 °F 28.4 °F 14% 29.98 in 10.0 mi West 13.8 mph - N/A   Clear
5:55 PM 78.8 °F 28.4 °F 16% 29.98 in 10.0 mi West 8.1 mph - N/A   Clear
6:15 PM 77.0 °F 28.4 °F 17% 29.99 in 10.0 mi West 6.9 mph - N/A   Clear
6:35 PM 73.4 °F 26.6 °F 18% 29.99 in 10.0 mi WSW 8.1 mph - N/A   Clear
6:55 PM 73.4 °F 28.4 °F 19% 30.00 in 10.0 mi WSW 5.8 mph - N/A   Clear
7:15 PM 71.6 °F 26.6 °F 19% 30.01 in 10.0 mi West 4.6 mph - N/A   Clear
7:35 PM 68.0 °F 28.4 °F 23% 30.03 in 10.0 mi NE 18.4 mph 26.5 mph N/A   Clear
7:55 PM 64.4 °F 26.6 °F 24% 30.05 in 10.0 mi ENE 17.3 mph - N/A   Clear
8:15 PM 62.6 °F 26.6 °F 26% 30.07 in 10.0 mi ENE 15.0 mph - N/A   Clear
8:35 PM 64.4 °F 26.6 °F 24% 30.09 in 10.0 mi NNE 20.7 mph 31.1 mph N/A   Clear
8:55 PM 62.6 °F 26.6 °F 26% 30.10 in 7.0 mi ENE 16.1 mph - N/A   Clear
9:15 PM 60.8 °F 26.6 °F 27% 30.11 in 10.0 mi NNE 10.4 mph - N/A   Clear
9:35 PM 57.2 °F 30.2 °F 36% 30.12 in 10.0 mi NE 13.8 mph - N/A   Clear
9:55 PM 57.2 °F 30.2 °F 36% 30.14 in 2.5 mi ENE 12.7 mph - N/A   Clear
10:15 PM 55.4 °F 30.2 °F 38% 30.15 in 3.0 mi NNE 8.1 mph - N/A   Clear
10:35 PM 55.4 °F 32.0 °F 41% 30.16 in 10.0 mi NE 11.5 mph - N/A   Clear
10:55 PM 53.6 °F 33.8 °F 47% 30.16 in 10.0 mi NE 11.5 mph - N/A   Clear
11:15 PM 53.6 °F 33.8 °F 47% 30.17 in 10.0 mi NE 12.7 mph - N/A   Clear
11:35 PM 51.8 °F 35.6 °F 54% 30.18 in 10.0 mi NNE 11.5 mph - N/A   Clear
11:55 PM 51.8 °F 35.6 °F 54% 30.19 in 10.0 mi NE 17.3 mph 21.9 mph N/A   Clear